{"data":{"norad_id":66942,"epoch":"2026-05-25T04:00:03.998880Z","epoch_age_seconds":53969,"freshness":"FRESH","line1":"1 66942U 25286T   26145.16671295  .00005203  00000+0  16937-3 0  9993","line2":"2 66942  53.1607   3.0061 0001344  74.8392 109.8458 15.33560611  5759","mean_motion":15.33560611,"eccentricity":0.0001344,"inclination_deg":53.1607,"raan_deg":3.0061,"arg_perigee_deg":74.8392,"mean_anomaly_deg":109.8458,"bstar":0.00016937,"rev_number":575,"period_min":93.899125321236,"perigee_km":464.27947470331,"apogee_km":466.118963479,"semimajor_km":6843.3362190912,"source":"CELESTRAK","updated_at":"2026-05-25T13:38:21.389136Z"}}